Location: Buchdorf
(48.7842°N, 10.8275°E)
Time: 22:32:38
(UTC+00:00)

SL-8 Rocket - Pass Details

Date: 09 April 2020
Orbit: 958 x 990 km, 82.9° (Epoch: 23 May)

Event Time Altitude Azimuth Distance (km) Brightness Sun altitude
Rises 19:21:11 0° 352° (N) 3,709 7.6 -13.3°
Reaches altitude 10° 19:23:46 10° 356° (N) 2,760 6.8 -13.6°
Maximum altitude 19:30:03 62° 77° (ENE) 1,110 4.1 -14.5°
Enters shadow 19:35:13 16° 155° (SSE) 2,363 5.5 -15.3°
